Location: Unspecified
(0.0000°N, 0.0000°E)
Time: 16:40:08
(UTC+00:00)

Cosmos 80 Rocket - Visible Passes

Search period start: 25 September 2021 00:00
Search period end: 05 October 2021 00:00
Orbit: 1361 x 1510 km, 56.1° (Epoch: 24 September)

Date Brightness Start Highest point End Pass type
(mag) Time Alt. Az. Time Alt. Az. Time Alt. Az.
25 Sep 6.8 19:08:31 10° NNE 19:11:31 14° NE 19:11:31 14° NE visible
25 Sep 7.1 21:03:57 10° NNW 21:06:10 20° NW 21:06:10 20° NW visible
26 Sep 6.1 19:56:35 10° NNW 20:01:56 35° NNE 20:01:56 35° NNE visible
27 Sep 6.4 18:51:01 10° NNE 18:56:58 19° ENE 18:57:53 19° ENE visible
27 Sep 6.4 20:47:45 10° NW 20:52:33 36° NW 20:52:33 36° NW visible
28 Sep 5.3 19:40:01 10° NNW 19:48:42 57° ENE 19:48:42 57° ENE visible
28 Sep 7.4 21:41:39 10° WNW 21:43:24 15° W 21:43:24 15° W visible
29 Sep 6.2 18:33:52 10° N 18:40:44 24° ENE 18:45:07 17° E visible
29 Sep 5.8 20:31:38 10° NW 20:39:50 54° WSW 20:39:50 54° WSW visible
30 Sep 5.2 19:23:32 10° NNW 19:32:25 70° ENE 19:36:35 35° SE visible
30 Sep 7.2 21:26:23 10° W 21:31:20 18° WSW 21:31:20 18° WSW visible
01 Oct 6.0 18:16:55 10° N 18:24:29 30° ENE 18:31:50 10° ESE visible
01 Oct 6.1 20:15:38 10° NW 20:23:56 44° WSW 20:28:33 25° S visible
02 Oct 5.2 19:07:08 10° NNW 19:16:07 84° ENE 19:24:49 10° SSE visible
02 Oct 7.5 21:11:36 10° W 21:15:39 14° WSW 21:19:40 10° SSW visible
03 Oct 5.8 18:00:08 10° N 18:08:14 37° ENE 18:16:05 10° ESE visible
03 Oct 6.5 19:59:45 10° WNW 20:07:38 36° WSW 20:15:22 10° S visible
04 Oct 5.4 18:50:50 10° NNW 18:59:48 81° WSW 19:08:31 10° SSE visible
04 Oct 7.8 20:58:37 10° WSW 20:59:27 10° WSW 21:00:18 10° SW visible
